When you browse on this site, cookies collect data to enhance your experience and personalize the content and advertising you see.
Visit our Privacy Policy to learn more. By continuing to use the site, you agree to this use of cookies and data.
  • In Spain
  • List of Countries
  • For 7 days
  • Water Temperature
  • Weather Map
  • Weather Widgets
  • user-avatar
    Login

    Hourly Weather Ali Sabieh

    Today, 21 October, Monday

    Time Temperature Precipitation Wind Pressure Humidity
    00:00 +25°C° 0 mm 5 mps 697 mmHg 73%
    01:00 +25°C° 0 mm 4 mps 697 mmHg 76%
    02:00 +25°C° 0 mm 4 mps 696 mmHg 79%
    03:00 +23°C° 0 mm 4 mps 696 mmHg 81%
    04:00 +23°C° 0 mm 4 mps 696 mmHg 83%
    05:00 +23°C° 0 mm 4 mps 697 mmHg 84%
    06:00 +23°C° 0 mm 4 mps 697 mmHg 86%
    07:00 +25°C° 0 mm 5 mps 698 mmHg 79%
    08:00 +26°C° 0 mm 6 mps 698 mmHg 72%
    09:00 +27°C° 0 mm 7 mps 699 mmHg 65%
    10:00 +28°C° 0 mm 7 mps 699 mmHg 58%
    11:00 +30°C° 0 mm 7 mps 698 mmHg 50%
    12:00 +32°C° 0 mm 7 mps 698 mmHg 43%
    13:00 +32°C° 0 mm 7 mps 698 mmHg 42%
    14:00 +32°C° 0 mm 7 mps 697 mmHg 40%
    15:00 +33°C° 0 mm 7 mps 696 mmHg 39%
    16:00 +32°C° 0 mm 7 mps 696 mmHg 42%
    17:00 +29°C° 0 mm 7 mps 696 mmHg 45%
    18:00 +28°C° 0 mm 7 mps 696 mmHg 48%
    19:00 +28°C° 0 mm 6 mps 696 mmHg 49%
    20:00 +27°C° 0 mm 6 mps 697 mmHg 50%
    21:00 +27°C° 0 mm 5 mps 697 mmHg 51%
    22:00 +27°C° 0 mm 5 mps 697 mmHg 52%
    23:00 +26°C° 0 mm 4 mps 697 mmHg 53%

    Tomorrow, 22 October, Tuesday

    Time Temperature Precipitation Wind Pressure Humidity
    00:00 +26°C° 0 mm 4 mps 697 mmHg 53%
    01:00 +25°C° 0 mm 4 mps 696 mmHg 54%
    02:00 +25°C° 0 mm 3 mps 696 mmHg 55%
    03:00 +25°C° 0 mm 3 mps 695 mmHg 55%
    04:00 +24°C° 0 mm 3 mps 696 mmHg 57%
    05:00 +24°C° 0 mm 3 mps 696 mmHg 60%
    06:00 +24°C° 0 mm 3 mps 696 mmHg 62%
    07:00 +25°C° 0 mm 4 mps 697 mmHg 54%
    08:00 +27°C° 0 mm 6 mps 698 mmHg 45%
    09:00 +28°C° 0 mm 7 mps 698 mmHg 37%
    10:00 +29°C° 0 mm 7 mps 698 mmHg 36%
    11:00 +31°C° 0 mm 8 mps 698 mmHg 34%
    12:00 +32°C° 0 mm 8 mps 697 mmHg 32%
    13:00 +33°C° 0 mm 8 mps 697 mmHg 31%
    14:00 +33°C° 0 mm 8 mps 696 mmHg 30%
    15:00 +33°C° 0 mm 8 mps 696 mmHg 29%
    16:00 +32°C° 0 mm 8 mps 696 mmHg 32%
    17:00 +31°C° 0 mm 8 mps 696 mmHg 36%
    18:00 +28°C° 0 mm 7 mps 696 mmHg 39%
    19:00 +28°C° 0 mm 6 mps 696 mmHg 41%
    20:00 +27°C° 0 mm 5 mps 696 mmHg 44%
    21:00 +26°C° 0 mm 5 mps 697 mmHg 47%
    22:00 +26°C° 0 mm 4 mps 697 mmHg 47%
    23:00 +26°C° 0 mm 2 mps 697 mmHg 47%

    Day after tomorrow, 23 October, Wednesday

    Time Temperature Precipitation Wind Pressure Humidity
    00:00 +25°C° 0 mm 1 mps 696 mmHg 48%
    01:00 +25°C° 0 mm 1 mps 696 mmHg 50%
    02:00 +24°C° 0 mm 1 mps 696 mmHg 52%
    03:00 +24°C° 0 mm 1 mps 695 mmHg 54%
    04:00 +24°C° 0 mm 1 mps 696 mmHg 53%
    05:00 +23°C° 0 mm 1 mps 696 mmHg 53%
    06:00 +23°C° 0 mm 1 mps 696 mmHg 53%
    07:00 +25°C° 0 mm 2 mps 697 mmHg 45%
    08:00 +27°C° 0 mm 3 mps 698 mmHg 38%
    09:00 +28°C° 0 mm 4 mps 698 mmHg 30%
    10:00 +29°C° 0 mm 5 mps 698 mmHg 29%
    11:00 +30°C° 0 mm 6 mps 698 mmHg 29%
    12:00 +32°C° 0 mm 7 mps 697 mmHg 28%
    13:00 +33°C° 0 mm 7 mps 697 mmHg 27%
    14:00 +33°C° 0 mm 7 mps 696 mmHg 27%
    15:00 +33°C° 0 mm 8 mps 696 mmHg 26%
    16:00 +32°C° 0 mm 7 mps 696 mmHg 30%
    17:00 +30°C° 0 mm 7 mps 696 mmHg 33%
    18:00 +29°C° 0 mm 7 mps 696 mmHg 36%
    19:00 +28°C° 0 mm 6 mps 696 mmHg 38%
    20:00 +28°C° 0 mm 5 mps 697 mmHg 41%
    21:00 +27°C° 0 mm 4 mps 697 mmHg 43%
    22:00 +27°C° 0 mm 3 mps 697 mmHg 46%
    23:00 +26°C° 0 mm 3 mps 697 mmHg 50%

    24 October, Thursday

    Time Temperature Precipitation Wind Pressure Humidity
    00:00 +25°C° 0 mm 3 mps 696 mmHg 53%
    01:00 +25°C° 0 mm 3 mps 696 mmHg 56%
    02:00 +25°C° 0 mm 2 mps 696 mmHg 59%
    03:00 +24°C° 0 mm 2 mps 696 mmHg 61%
    04:00 +24°C° 0 mm 3 mps 696 mmHg 64%
    05:00 +24°C° 0 mm 3 mps 697 mmHg 66%
    06:00 +22°C° 0 mm 3 mps 697 mmHg 69%
    07:00 +25°C° 0 mm 4 mps 697 mmHg 59%
    08:00 +27°C° 0 mm 5 mps 698 mmHg 48%
    09:00 +28°C° 0 mm 6 mps 699 mmHg 38%
    10:00 +30°C° 0 mm 7 mps 698 mmHg 35%
    11:00 +32°C° 0 mm 7 mps 698 mmHg 32%
    12:00 +33°C° 0 mm 8 mps 698 mmHg 28%
    13:00 +33°C° 0 mm 8 mps 697 mmHg 27%
    14:00 +33°C° 0 mm 8 mps 697 mmHg 25%
    15:00 +33°C° 0 mm 8 mps 696 mmHg 24%
    16:00 +32°C° 0 mm 8 mps 696 mmHg 28%
    17:00 +31°C° 0 mm 8 mps 696 mmHg 31%
    18:00 +28°C° 0 mm 7 mps 696 mmHg 35%
    19:00 +28°C° 0 mm 6 mps 697 mmHg 37%
    20:00 +27°C° 0 mm 5 mps 697 mmHg 40%
    21:00 +26°C° 0 mm 4 mps 697 mmHg 43%
    22:00 +26°C° 0 mm 4 mps 697 mmHg 45%
    23:00 +25°C° 0 mm 3 mps 697 mmHg 48%

    25 October, Friday

    Time Temperature Precipitation Wind Pressure Humidity
    00:00 +25°C° 0 mm 3 mps 697 mmHg 51%
    01:00 +24°C° 0 mm 3 mps 696 mmHg 55%
    02:00 +24°C° 0 mm 3 mps 696 mmHg 59%
    03:00 +22°C° 0 mm 3 mps 696 mmHg 63%
    04:00 +22°C° 0 mm 3 mps 696 mmHg 65%
    05:00 +22°C° 0 mm 3 mps 696 mmHg 67%
    06:00 +22°C° 0 mm 3 mps 697 mmHg 70%
    07:00 +24°C° 0 mm 3 mps 697 mmHg 60%
    08:00 +26°C° 0 mm 4 mps 698 mmHg 50%
    09:00 +28°C° 0 mm 4 mps 698 mmHg 39%
    10:00 +29°C° 0 mm 5 mps 698 mmHg 34%
    11:00 +32°C° 0 mm 5 mps 698 mmHg 28%
    12:00 +33°C° 0 mm 6 mps 697 mmHg 23%
    13:00 +33°C° 0 mm 6 mps 697 mmHg 22%
    14:00 +34°C° 0 mm 7 mps 696 mmHg 21%
    15:00 +34°C° 0 mm 7 mps 696 mmHg 20%
    16:00 +33°C° 0 mm 7 mps 696 mmHg 23%
    17:00 +30°C° 0 mm 7 mps 696 mmHg 27%
    18:00 +29°C° 0 mm 6 mps 696 mmHg 30%
    19:00 +28°C° 0 mm 6 mps 696 mmHg 35%
    20:00 +27°C° 0 mm 5 mps 696 mmHg 40%
    21:00 +26°C° 0 mm 4 mps 696 mmHg 45%
    22:00 +25°C° 0 mm 4 mps 696 mmHg 49%
    23:00 +25°C° 0 mm 4 mps 696 mmHg 54%

    26 October, Saturday

    Time Temperature Precipitation Wind Pressure Humidity
    00:00 +23°C° 0 mm 4 mps 696 mmHg 58%
    01:00 +24°C° 0 mm 3 mps 696 mmHg 62%
    02:00 +22°C° 0 mm 3 mps 695 mmHg 66%
    03:00 +22°C° 0 mm 3 mps 695 mmHg 70%
    04:00 +22°C° 0 mm 3 mps 696 mmHg 71%
    05:00 +23°C° 0 mm 2 mps 696 mmHg 73%
    06:00 +21°C° 0 mm 2 mps 696 mmHg 74%
    07:00 +24°C° 0 mm 3 mps 697 mmHg 65%
    08:00 +26°C° 0 mm 3 mps 698 mmHg 56%
    09:00 +27°C° 0 mm 4 mps 698 mmHg 47%
    10:00 +29°C° 0 mm 4 mps 698 mmHg 42%
    11:00 +30°C° 0 mm 5 mps 698 mmHg 36%
    12:00 +33°C° 0 mm 5 mps 697 mmHg 31%
    13:00 +33°C° 0 mm 5 mps 697 mmHg 31%
    14:00 +34°C° 0 mm 6 mps 696 mmHg 30%
    15:00 +34°C° 0 mm 6 mps 695 mmHg 30%
    16:00 +33°C° 0 mm 6 mps 695 mmHg 36%
    17:00 +30°C° 0 mm 6 mps 695 mmHg 42%
    18:00 +28°C° 0 mm 6 mps 695 mmHg 48%
    19:00 +28°C° 0 mm 6 mps 695 mmHg 50%
    20:00 +27°C° 0 mm 5 mps 696 mmHg 51%
    21:00 +26°C° 0 mm 5 mps 696 mmHg 53%
    22:00 +26°C° 0 mm 4 mps 696 mmHg 57%
    23:00 +25°C° 0 mm 4 mps 696 mmHg 61%

    27 October, Sunday

    Time Temperature Precipitation Wind Pressure Humidity
    00:00 +25°C° 0 mm 3 mps 696 mmHg 66%
    01:00 +25°C° 0 mm 3 mps 695 mmHg 67%
    02:00 +24°C° 0 mm 2 mps 695 mmHg 69%
    03:00 +24°C° 0 mm 2 mps 695 mmHg 71%
    04:00 +24°C° 0 mm 1 mps 695 mmHg 73%
    05:00 +23°C° 0 mm 1 mps 695 mmHg 75%
    06:00 +23°C° 0 mm 1 mps 696 mmHg 77%
    07:00 +25°C° 0 mm 2 mps 696 mmHg 64%
    08:00 +27°C° 0 mm 3 mps 697 mmHg 51%
    09:00 +28°C° 0 mm 4 mps 698 mmHg 39%
    10:00 +30°C° 0 mm 5 mps 698 mmHg 34%
    11:00 +32°C° 0 mm 6 mps 697 mmHg 30%
    12:00 +34°C° 0 mm 7 mps 697 mmHg 25%
    13:00 +34°C° 0 mm 8 mps 697 mmHg 24%
    14:00 +34°C° 0 mm 8 mps 696 mmHg 23%
    15:00 +34°C° 0 mm 8 mps 695 mmHg 22%
    16:00 +32°C° 0 mm 8 mps 695 mmHg 25%
    17:00 +30°C° 0 mm 7 mps 696 mmHg 28%
    18:00 +29°C° 0 mm 7 mps 696 mmHg 31%
    19:00 +28°C° 0 mm 6 mps 696 mmHg 34%
    20:00 +27°C° 0 mm 5 mps 696 mmHg 37%
    21:00 +27°C° 0 mm 4 mps 696 mmHg 40%
    22:00 +26°C° 0 mm 4 mps 696 mmHg 45%
    23:00 +25°C° 0 mm 3 mps 696 mmHg 50%
    Show more